Location: Bluff Heights
(33.7692°N, 118.1592°W)
Time: 08:24:12
(UTC+00:00)

Tiros 1 - Pass Details

Date: 02 August 2021
Orbit: 630 x 663 km, 48.4° (Epoch: 22 September)

Event Time Altitude Azimuth Distance (km) Brightness Sun altitude
Rises 03:53:22 0° 296° (WNW) 2,977 12.7 -12.1°
Reaches altitude 10° 03:56:51 10° 322° (NW) 2,059 11.0 -12.7°
Maximum altitude 03:59:19 14° 353° (N) 1,803 10.0 -13.2°
Drops below altitude 10° 04:01:47 10° 25° (NNE) 2,049 9.8 -13.6°
Sets 04:05:14 0° 51° (NE) 2,951 10.4 -14.2°
